User: anonymous   Login
Location: Fort Wayne
(41.1310°N, 85.1290°W)
Time: 03:56:10
(UTC-04:00)
Language:

Gbstr 26 Del rocket - Orbit

View from above orbital plane
View from above orbital plane
View from above satellite
View from above satellite

Ground track
Ground track

The orbit data is extracted from the following two-line orbital elements,

1 25876U 99041E   15107.75845147  .00002104  00000-0  40236-3 0  9991
2 25876 051.7672 197.6496 0535898 242.6108 111.9330 14.03115121803458
Epoch (UTC): 17 April 2015 18:12:10
Eccentricity: 0.0535898
inclination: 51.7672°
perigee height: 494 km
apogee height: 1272 km
right ascension of ascending node: 197.6496°
argument of perigee: 242.6108°
revolutions per day: 14.03115121
mean anomaly at epoch: 111.9330°
orbit number at epoch: 80345

The dashed part of the orbit path shows where the satellite is in the earth's shadow,  

DLR